TimeEST,TemperatureF,Dew PointF,Humidity,Sea Level PressureIn,VisibilityMPH,Wind Direction,Wind SpeedMPH,Gust SpeedMPH,PrecipitationIn,Events,Conditions,WindDirDegrees,DateUTC
12:10 AM,48.2,48.2,100,30.25,3.0,Calm,Calm,-,N/A,,Clear,0,2012-12-04 05:10:00
12:11 AM,48.2,48.2,100,30.25,2.5,Calm,Calm,-,N/A,,Clear,0,2012-12-04 05:11:00
12:14 AM,48.2,48.2,100,30.25,2.5,Calm,Calm,-,N/A,,Clear,0,2012-12-04 05:14:00
12:15 AM,48.2,48.2,100,30.25,2.5,Calm,Calm,-,N/A,,Clear,0,2012-12-04 05:15:00
12:21 AM,48.2,48.2,100,30.25,3.0,Calm,Calm,-,N/A,,Clear,0,2012-12-04 05:21:00
12:33 AM,48.2,48.2,100,30.25,8.0,Calm,Calm,-,N/A,,Clear,0,2012-12-04 05:33:00
12:44 AM,48.2,48.2,100,30.25,2.5,Calm,Calm,-,N/A,,Clear,0,2012-12-04 05:44:00
12:45 AM,48.2,48.2,100,30.25,2.5,Calm,Calm,-,N/A,,Clear,0,2012-12-04 05:45:00
12:49 AM,46.4,46.4,100,30.24,2.0,Calm,Calm,-,N/A,,Clear,0,2012-12-04 05:49:00
12:53 AM,46.4,46.4,100,30.24,4.0,Calm,Calm,-,N/A,,Clear,0,2012-12-04 05:53:00
12:55 AM,46.8,46.6,99,30.24,7.0,Calm,Calm,-,N/A,,Clear,0,2012-12-04 05:55:00
12:59 AM,46.4,46.4,100,30.24,2.5,Calm,Calm,-,N/A,,Clear,0,2012-12-04 05:59:00
1:00 AM,46.4,46.4,100,30.24,1.8,Calm,Calm,-,N/A,,Clear,0,2012-12-04 06:00:00
1:01 AM,46.4,46.4,100,30.24,1.5,Calm,Calm,-,N/A,,Clear,0,2012-12-04 06:01:00
1:02 AM,46.4,46.4,100,30.24,1.2,Calm,Calm,-,N/A,,Clear,0,2012-12-04 06:02:00
1:03 AM,46.4,46.4,100,30.24,1.0,Calm,Calm,-,N/A,,Clear,0,2012-12-04 06:03:00
1:04 AM,46.4,46.4,100,30.24,1.0,Calm,Calm,-,N/A,,Clear,0,2012-12-04 06:04:00
1:05 AM,46.4,46.4,100,30.24,1.0,Calm,Calm,-,N/A,,Clear,0,2012-12-04 06:05:00
1:10 AM,44.6,44.6,100,30.24,1.0,Calm,Calm,-,N/A,,Clear,0,2012-12-04 06:10:00
1:11 AM,44.6,44.6,100,30.24,1.2,Calm,Calm,-,N/A,,Clear,0,2012-12-04 06:11:00
1:12 AM,44.6,44.6,100,30.24,1.5,Calm,Calm,-,N/A,,Clear,0,2012-12-04 06:12:00
1:13 AM,44.6,44.6,100,30.24,1.8,Calm,Calm,-,N/A,,Clear,0,2012-12-04 06:13:00
1:14 AM,46.4,44.6,93,30.24,2.0,Calm,Calm,-,N/A,,Clear,0,2012-12-04 06:14:00
1:16 AM,46.4,46.4,100,30.24,3.0,Calm,Calm,-,N/A,,Clear,0,2012-12-04 06:16:00
1:29 AM,46.4,44.6,93,30.24,2.5,Calm,Calm,-,N/A,,Clear,0,2012-12-04 06:29:00
1:30 AM,46.4,44.6,93,30.24,1.8,Calm,Calm,-,N/A,,Clear,0,2012-12-04 06:30:00
1:31 AM,46.4,44.6,93,30.24,1.8,Calm,Calm,-,N/A,,Clear,0,2012-12-04 06:31:00
1:32 AM,46.4,44.6,93,30.24,1.5,Calm,Calm,-,N/A,,Clear,0,2012-12-04 06:32:00
1:33 AM,46.4,44.6,93,30.24,1.2,Calm,Calm,-,N/A,,Clear,0,2012-12-04 06:33:00
1:34 AM,46.4,44.6,93,30.24,1.0,Calm,Calm,-,N/A,,Clear,0,2012-12-04 06:34:00
1:35 AM,46.4,44.6,93,30.24,1.0,Calm,Calm,-,N/A,,Clear,0,2012-12-04 06:35:00
1:36 AM,46.4,44.6,93,30.24,0.8,Calm,Calm,-,N/A,,Clear,0,2012-12-04 06:36:00
1:42 AM,46.4,44.6,93,30.24,1.0,Calm,Calm,-,N/A,,Clear,0,2012-12-04 06:42:00
1:43 AM,46.4,46.4,100,30.24,1.0,Calm,Calm,-,N/A,,Clear,0,2012-12-04 06:43:00
1:44 AM,46.4,46.4,100,30.24,1.2,Calm,Calm,-,N/A,,Clear,0,2012-12-04 06:44:00
1:45 AM,46.4,46.4,100,30.24,1.5,Calm,Calm,-,N/A,,Clear,0,2012-12-04 06:45:00
1:49 AM,46.4,46.4,100,30.24,1.8,Calm,Calm,-,N/A,,Clear,0,2012-12-04 06:49:00
1:50 AM,46.4,46.4,100,30.24,2.0,Calm,Calm,-,N/A,,Clear,0,2012-12-04 06:50:00
1:51 AM,46.4,46.4,100,30.24,2.5,Calm,Calm,-,N/A,,Clear,0,2012-12-04 06:51:00
1:55 AM,45.1,44.8,99,30.24,2.0,Calm,Calm,-,N/A,,Clear,0,2012-12-04 06:55:00
1:59 AM,44.6,42.8,93,30.25,1.5,Calm,Calm,-,N/A,,Clear,0,2012-12-04 06:59:00
2:00 AM,42.8,42.8,100,30.25,1.2,Calm,Calm,-,N/A,,Clear,0,2012-12-04 07:00:00
2:01 AM,42.8,42.8,100,30.25,1.0,Calm,Calm,-,N/A,,Clear,0,2012-12-04 07:01:00
2:02 AM,42.8,42.8,100,30.25,1.0,Calm,Calm,-,N/A,,Clear,0,2012-12-04 07:02:00
2:03 AM,42.8,42.8,100,30.25,1.0,Calm,Calm,-,N/A,,Clear,0,2012-12-04 07:03:00
2:04 AM,42.8,42.8,100,30.25,0.8,Calm,Calm,-,N/A,,Clear,0,2012-12-04 07:04:00
2:11 AM,42.8,42.8,100,30.25,0.5,Calm,Calm,-,N/A,Fog,Fog,0,2012-12-04 07:11:00
2:13 AM,41.0,41.0,100,30.25,0.5,Calm,Calm,-,N/A,Fog,Fog,0,2012-12-04 07:13:00
2:16 AM,42.8,42.8,100,30.25,0.2,Calm,Calm,-,N/A,Fog,Fog,0,2012-12-04 07:16:00
2:19 AM,42.8,42.8,100,30.25,0.2,Calm,Calm,-,N/A,Fog,Fog,0,2012-12-04 07:19:00
2:20 AM,42.8,42.8,100,30.25,0.5,Calm,Calm,-,N/A,Fog,Fog,0,2012-12-04 07:20:00
2:22 AM,42.8,42.8,100,30.25,0.5,WNW,3.5,-,N/A,Fog,Fog,300,2012-12-04 07:22:00
2:24 AM,42.8,42.8,100,30.25,0.8,WNW,3.5,-,N/A,,Clear,300,2012-12-04 07:24:00
2:27 AM,42.8,41.0,93,30.25,1.0,NW,3.5,-,N/A,,Clear,310,2012-12-04 07:27:00
2:28 AM,42.8,41.0,93,30.25,0.8,NW,3.5,-,N/A,,Clear,310,2012-12-04 07:28:00
2:31 AM,42.8,41.0,93,30.25,0.5,Calm,Calm,-,N/A,Fog,Fog,0,2012-12-04 07:31:00
2:32 AM,42.8,41.0,93,30.25,0.5,Calm,Calm,-,N/A,Fog,Fog,0,2012-12-04 07:32:00
2:34 AM,42.8,42.8,100,30.25,0.5,Calm,Calm,-,N/A,Fog,Fog,0,2012-12-04 07:34:00
2:55 AM,44.2,44.1,99,30.25,0.5,Calm,Calm,-,N/A,Fog,Fog,0,2012-12-04 07:55:00
3:00 AM,42.8,42.8,100,30.25,0.2,Calm,Calm,-,N/A,Fog,Fog,0,2012-12-04 08:00:00
3:04 AM,44.6,42.8,93,30.25,0.5,Calm,Calm,-,N/A,Fog,Fog,0,2012-12-04 08:04:00
3:15 AM,42.8,42.8,100,30.25,0.5,Calm,Calm,-,N/A,Fog,Fog,0,2012-12-04 08:15:00
3:16 AM,42.8,42.8,100,30.25,0.5,Calm,Calm,-,N/A,Fog,Fog,0,2012-12-04 08:16:00
3:17 AM,42.8,42.8,100,30.25,0.8,Calm,Calm,-,N/A,,Clear,0,2012-12-04 08:17:00
3:22 AM,44.6,42.8,93,30.25,1.0,Calm,Calm,-,N/A,,Clear,0,2012-12-04 08:22:00
3:23 AM,42.8,42.8,100,30.25,1.2,Calm,Calm,-,N/A,,Clear,0,2012-12-04 08:23:00
3:24 AM,42.8,42.8,100,30.25,1.5,Calm,Calm,-,N/A,,Clear,0,2012-12-04 08:24:00
3:25 AM,42.8,42.8,100,30.25,1.8,Calm,Calm,-,N/A,,Clear,0,2012-12-04 08:25:00
3:26 AM,42.8,42.8,100,30.25,2.0,Calm,Calm,-,N/A,,Clear,0,2012-12-04 08:26:00
3:29 AM,42.8,42.8,100,30.25,3.0,Calm,Calm,-,N/A,,Clear,0,2012-12-04 08:29:00
3:43 AM,42.8,42.8,100,30.25,2.0,Calm,Calm,-,N/A,,Clear,0,2012-12-04 08:43:00
3:44 AM,42.8,42.8,100,30.25,1.2,Calm,Calm,-,N/A,,Clear,0,2012-12-04 08:44:00
3:45 AM,42.8,42.8,100,30.25,1.0,Calm,Calm,-,N/A,,Clear,0,2012-12-04 08:45:00
3:46 AM,42.8,42.8,100,30.25,0.8,Calm,Calm,-,N/A,,Clear,0,2012-12-04 08:46:00
3:48 AM,44.6,42.8,93,30.25,0.5,Calm,Calm,-,N/A,Fog,Fog,0,2012-12-04 08:48:00
3:49 AM,44.6,42.8,93,30.25,0.5,Calm,Calm,-,N/A,Fog,Fog,0,2012-12-04 08:49:00
3:51 AM,44.6,42.8,93,30.25,0.5,Calm,Calm,-,N/A,Fog,Fog,0,2012-12-04 08:51:00
3:52 AM,44.6,42.8,93,30.25,0.5,Calm,Calm,-,N/A,Fog,Fog,0,2012-12-04 08:52:00
3:55 AM,44.1,43.7,99,30.25,0.5,Calm,Calm,-,N/A,Fog,Fog,0,2012-12-04 08:55:00
3:56 AM,44.6,44.6,100,30.25,0.5,Calm,Calm,-,N/A,Fog,Fog,0,2012-12-04 08:56:00
3:57 AM,44.6,44.6,100,30.25,0.5,Calm,Calm,-,N/A,Fog,Fog,0,2012-12-04 08:57:00
4:01 AM,44.6,44.6,100,30.25,0.8,Calm,Calm,-,N/A,,Clear,0,2012-12-04 09:01:00
4:09 AM,42.8,42.8,100,30.25,1.0,Calm,Calm,-,N/A,,Clear,0,2012-12-04 09:09:00
4:11 AM,42.8,42.8,100,30.25,1.2,Calm,Calm,-,N/A,,Clear,0,2012-12-04 09:11:00
4:13 AM,42.8,42.8,100,30.25,1.5,Calm,Calm,-,N/A,,Clear,0,2012-12-04 09:13:00
4:15 AM,42.8,42.8,100,30.25,1.8,Calm,Calm,-,N/A,,Clear,0,2012-12-04 09:15:00
4:17 AM,42.8,42.8,100,30.25,2.0,Calm,Calm,-,N/A,,Clear,0,2012-12-04 09:17:00
4:18 AM,42.8,42.8,100,30.25,2.0,Calm,Calm,-,N/A,,Clear,0,2012-12-04 09:18:00
4:19 AM,42.8,42.8,100,30.25,2.5,Calm,Calm,-,N/A,,Clear,0,2012-12-04 09:19:00
4:20 AM,42.8,42.8,100,30.25,3.0,Calm,Calm,-,N/A,,Clear,0,2012-12-04 09:20:00
4:30 AM,42.8,42.8,100,30.25,1.8,Calm,Calm,-,N/A,,Clear,0,2012-12-04 09:30:00
4:31 AM,42.8,42.8,100,30.25,1.2,Calm,Calm,-,N/A,,Clear,0,2012-12-04 09:31:00
4:32 AM,42.8,42.8,100,30.25,1.0,Calm,Calm,-,N/A,,Clear,0,2012-12-04 09:32:00
4:33 AM,42.8,42.8,100,30.25,0.8,Calm,Calm,-,N/A,,Clear,0,2012-12-04 09:33:00
4:35 AM,42.8,42.8,100,30.25,0.5,Calm,Calm,-,N/A,Fog,Fog,0,2012-12-04 09:35:00
4:36 AM,42.8,42.8,100,30.25,0.5,Calm,Calm,-,N/A,Fog,Fog,0,2012-12-04 09:36:00
4:37 AM,42.8,42.8,100,30.25,0.5,Calm,Calm,-,N/A,Fog,Fog,0,2012-12-04 09:37:00
4:38 AM,42.8,42.8,100,30.25,0.5,Calm,Calm,-,N/A,Fog,Fog,0,2012-12-04 09:38:00
4:55 AM,42.6,42.3,99,30.26,0.5,WNW,3.5,-,N/A,Fog,Fog,300,2012-12-04 09:55:00
4:56 AM,42.8,42.8,100,30.26,0.5,WNW,3.5,-,N/A,Fog,Fog,300,2012-12-04 09:56:00
4:57 AM,42.8,41.0,93,30.26,0.5,WNW,3.5,-,N/A,Fog,Fog,300,2012-12-04 09:57:00
4:58 AM,41.0,41.0,100,30.26,0.8,WNW,3.5,-,N/A,,Clear,300,2012-12-04 09:58:00
5:07 AM,42.8,42.8,100,30.26,0.8,Calm,Calm,-,N/A,,Clear,0,2012-12-04 10:07:00
5:12 AM,42.8,42.8,100,30.26,0.5,Calm,Calm,-,N/A,Fog,Fog,0,2012-12-04 10:12:00
5:14 AM,42.8,42.8,100,30.26,0.8,Calm,Calm,-,N/A,,Clear,0,2012-12-04 10:14:00
5:22 AM,42.8,42.8,100,30.26,1.0,Calm,Calm,-,N/A,,Clear,0,2012-12-04 10:22:00
5:23 AM,42.8,42.8,100,30.27,1.2,Calm,Calm,-,N/A,,Clear,0,2012-12-04 10:23:00
5:26 AM,42.8,42.8,100,30.27,1.5,Calm,Calm,-,N/A,,Clear,0,2012-12-04 10:26:00
5:27 AM,42.8,42.8,100,30.27,2.0,Calm,Calm,-,N/A,,Clear,0,2012-12-04 10:27:00
5:28 AM,42.8,42.8,100,30.27,3.0,Calm,Calm,-,N/A,,Clear,0,2012-12-04 10:28:00
5:46 AM,42.8,42.8,100,30.27,4.0,Calm,Calm,-,N/A,,Mostly Cloudy,0,2012-12-04 10:46:00
5:49 AM,44.6,42.8,93,30.27,3.0,Calm,Calm,-,N/A,,Mostly Cloudy,0,2012-12-04 10:49:00
5:51 AM,44.6,44.6,100,30.27,3.0,Calm,Calm,-,N/A,,Mostly Cloudy,0,2012-12-04 10:51:00
5:55 AM,44.1,43.9,99,30.28,3.0,Calm,Calm,-,N/A,,Mostly Cloudy,0,2012-12-04 10:55:00
5:56 AM,44.6,44.6,100,30.28,4.0,Calm,Calm,-,N/A,,Mostly Cloudy,0,2012-12-04 10:56:00
6:26 AM,44.6,44.6,100,30.28,2.0,Calm,Calm,-,N/A,,Clear,0,2012-12-04 11:26:00
6:27 AM,44.6,44.6,100,30.28,1.8,Calm,Calm,-,N/A,,Clear,0,2012-12-04 11:27:00
6:28 AM,44.6,44.6,100,30.28,1.5,Calm,Calm,-,N/A,,Partly Cloudy,0,2012-12-04 11:28:00
6:29 AM,44.6,42.8,93,30.28,1.2,Calm,Calm,-,N/A,,Partly Cloudy,0,2012-12-04 11:29:00
6:30 AM,44.6,42.8,93,30.28,1.0,Calm,Calm,-,N/A,,Partly Cloudy,0,2012-12-04 11:30:00
6:31 AM,44.6,42.8,93,30.28,1.0,Calm,Calm,-,N/A,,Partly Cloudy,0,2012-12-04 11:31:00
6:32 AM,44.6,42.8,93,30.28,0.8,Calm,Calm,-,N/A,,Partly Cloudy,0,2012-12-04 11:32:00
6:33 AM,42.8,42.8,100,30.28,0.8,Calm,Calm,-,N/A,,Partly Cloudy,0,2012-12-04 11:33:00
6:36 AM,42.8,42.8,100,30.29,0.5,Calm,Calm,-,N/A,Fog,Fog,0,2012-12-04 11:36:00
6:37 AM,42.8,42.8,100,30.29,0.5,Calm,Calm,-,N/A,Fog,Fog,0,2012-12-04 11:37:00
6:55 AM,41.9,41.7,99,30.29,0.2,WNW,3.5,-,N/A,Fog,Fog,300,2012-12-04 11:55:00
7:03 AM,41.0,41.0,100,30.30,0.5,Calm,Calm,-,N/A,Fog,Fog,0,2012-12-04 12:03:00
7:06 AM,41.0,41.0,100,30.30,0.5,Calm,Calm,-,N/A,Fog,Fog,0,2012-12-04 12:06:00
7:07 AM,41.0,41.0,100,30.30,0.5,Calm,Calm,-,N/A,Fog,Fog,0,2012-12-04 12:07:00
7:09 AM,41.0,41.0,100,30.30,0.8,Calm,Calm,-,N/A,,Clear,0,2012-12-04 12:09:00
7:14 AM,41.0,41.0,100,30.30,0.5,Calm,Calm,-,N/A,Fog,Fog,0,2012-12-04 12:14:00
7:18 AM,41.0,41.0,100,30.30,0.2,Calm,Calm,-,N/A,Fog,Fog,0,2012-12-04 12:18:00
7:55 AM,43.0,42.6,99,30.32,10.0,Calm,Calm,-,N/A,,Clear,0,2012-12-04 12:55:00
8:00 AM,42.8,42.8,100,30.31,2.5,Calm,Calm,-,N/A,,Clear,0,2012-12-04 13:00:00
8:01 AM,42.8,42.8,100,30.31,1.8,Calm,Calm,-,N/A,,Clear,0,2012-12-04 13:01:00
8:02 AM,42.8,42.8,100,30.31,1.5,Calm,Calm,-,N/A,,Clear,0,2012-12-04 13:02:00
8:03 AM,42.8,42.8,100,30.31,1.2,Calm,Calm,-,N/A,,Clear,0,2012-12-04 13:03:00
8:04 AM,42.8,42.8,100,30.31,1.0,Calm,Calm,-,N/A,,Clear,0,2012-12-04 13:04:00
8:05 AM,42.8,42.8,100,30.31,0.8,Calm,Calm,-,N/A,,Clear,0,2012-12-04 13:05:00
8:09 AM,44.6,42.8,93,30.31,0.8,Calm,Calm,-,N/A,,Clear,0,2012-12-04 13:09:00
8:10 AM,44.6,42.8,93,30.31,0.5,Calm,Calm,-,N/A,Fog,Fog,0,2012-12-04 13:10:00
8:15 AM,44.6,44.6,100,30.31,0.2,Calm,Calm,-,N/A,Fog,Fog,0,2012-12-04 13:15:00
8:17 AM,44.6,44.6,100,30.31,0.2,Calm,Calm,-,N/A,Fog,Fog,0,2012-12-04 13:17:00
8:55 AM,48.6,48.2,99,30.32,10.0,Calm,Calm,-,N/A,,Clear,0,2012-12-04 13:55:00
9:05 AM,50.0,50.0,100,30.32,10.0,Calm,Calm,-,N/A,,Partly Cloudy,0,2012-12-04 14:05:00
9:48 AM,55.4,53.6,94,30.33,10.0,Calm,Calm,-,N/A,,Partly Cloudy,0,2012-12-04 14:48:00
9:55 AM,56.5,56.1,99,30.33,10.0,Calm,Calm,-,N/A,,Clear,0,2012-12-04 14:55:00
10:55 AM,66.2,58.3,76,30.33,10.0,Calm,Calm,-,N/A,,Scattered Clouds,0,2012-12-04 15:55:00
11:55 AM,71.6,59.5,66,30.30,10.0,South,6.9,-,N/A,,Partly Cloudy,180,2012-12-04 16:55:00
12:55 PM,75.4,58.6,56,30.26,10.0,South,8.1,-,N/A,,Mostly Cloudy,180,2012-12-04 17:55:00
1:55 PM,75.4,57.4,53,30.24,10.0,South,8.1,-,N/A,,Scattered Clouds,190,2012-12-04 18:55:00
2:55 PM,75.2,55.2,50,30.22,10.0,Calm,Calm,-,N/A,,Mostly Cloudy,0,2012-12-04 19:55:00
3:55 PM,76.5,54.9,47,30.22,10.0,West,6.9,-,N/A,,Partly Cloudy,260,2012-12-04 20:55:00
4:55 PM,73.0,55.8,55,30.21,10.0,South,3.5,-,N/A,,Overcast,190,2012-12-04 21:55:00
5:55 PM,66.6,55.8,68,30.21,10.0,Calm,Calm,-,N/A,,Overcast,0,2012-12-04 22:55:00
6:55 PM,60.6,54.7,81,30.22,10.0,Calm,Calm,-,N/A,,Mostly Cloudy,0,2012-12-04 23:55:00
7:55 PM,58.8,54.3,85,30.22,10.0,Calm,Calm,-,N/A,,Mostly Cloudy,0,2012-12-05 00:55:00
8:55 PM,56.5,53.8,91,30.23,10.0,SSE,3.5,-,N/A,,Partly Cloudy,150,2012-12-05 01:55:00
9:55 PM,55.2,54.3,97,30.23,10.0,Calm,Calm,-,N/A,,Mostly Cloudy,0,2012-12-05 02:55:00
10:55 PM,54.0,53.4,98,30.23,10.0,Calm,Calm,-,N/A,,Mostly Cloudy,0,2012-12-05 03:55:00
11:55 PM,53.8,52.5,95,30.22,10.0,SSE,4.6,-,N/A,,Partly Cloudy,160,2012-12-05 04:55:00